Location: Beang
(6.6177°N, 10.9863°W)
Time: 00:57:24
(UTC+00:00)

Cosmos 1238 Rocket - Pass Details

Date: 07 June 2020
Orbit: 374 x 1030 km, 82.9° (Epoch: 13 July)

Event Time Altitude Azimuth Distance (km) Brightness Sun altitude
Exits shadow 05:09:42 - 172° (S) 2,912 6.3 -18.5°
Rises 05:09:44 0° 172° (S) 2,899 6.3 -18.5°
Reaches altitude 10° 05:11:50 10° 166° (SSE) 2,089 5.6 -18.0°
Maximum altitude 05:16:23 50° 91° (E) 962 4.4 -17.0°
Drops below altitude 10° 05:21:51 10° 17° (NNE) 2,502 6.8 -15.8°
Sets 05:24:33 0° 12° (NNE) 3,532 7.5 -15.2°
